New York Downtown Manhattan/w, NY

10:13 PM EST on December 12, 2019 (GMT -0500)
New York Downtown Manhattan/w

Weather History for KJRB - July, 2019

Change the Weather History Date:

Wednesday, July 17, 2019

  Actual Average (KEWR) Record (KEWR)
Temperature  
Mean Temperature 83 °F -  
Max Temperature 93 °F 88 °F 100 °F (1988)
Min Temperature 73 °F 70 °F 56 °F (1946)
Cooling Degree Days 18    
Growing Degree Days 33 (Base 50)    
Moisture  
Dew Point 73 °F    
Average Humidity 81    
Maximum Humidity 100    
Minimum Humidity 54    
Precipitation  
Precipitation 0.68 in - - ()
Sea Level Pressure  
Sea Level Pressure 29.93 in    
Wind  
Wind Speed 6 mph (West)    
Max Wind Speed 14 mph    
Max Gust Speed 53 mph    
Visibility 8 miles    
Events Rain , Thunderstorm    
Averages and records for this station are not official NWS values.
T = Trace of Precipitation, MM = Missing Value Source: NWS Daily Summary

Daily Weather History Graph

Daily Weather History Graph

Search for Another Location

Airport or City:

Astronomy

Jul. 17, 2019 Rise Set
Actual Time 5:39 AM EDT 8:24 PM EDT
Civil Twilight 5:06 AM EDT 8:56 PM EDT
Nautical Twilight 4:26 AM EDT 9:37 PM EDT
Astronomical Twilight 3:40 AM EDT 10:23 PM EDT
Moon 9:11 PM EDT (7/17) 6:09 AM EDT (7/17)
Length of Visible Light 15h 49m
Length of Day
14h 45m
Waxing Gibbous, 99% of the Moon is Illuminated
Jul 17
Waxing Gibbous
Jul 24
Last Quarter
Jul 31
New
Aug 7
First Quarter
Aug 15
Full

Hourly Weather History & Observations

Time (EDT) Temp. Heat Index Dew Point Humidity Pressure Visibility Wind Dir Wind Speed Gust Speed Precip Events Conditions
12:56 AM 80.1 °F 83.6 °F 71.1 °F 74% 30.01 in 10.0 mi West 5.8 mph - N/A   Clear
1:56 AM 80.1 °F 82.9 °F 69.1 °F 69% 30.00 in 10.0 mi West 8.1 mph - N/A   Mostly Cloudy
2:56 AM 79.0 °F - 70.0 °F 74% 29.99 in 10.0 mi West 3.5 mph - N/A   Mostly Cloudy
3:56 AM 78.1 °F - 70.0 °F 76% 29.97 in 10.0 mi Calm Calm - N/A   Mostly Cloudy
4:56 AM 79.0 °F - 70.0 °F 74% 29.97 in 10.0 mi West 3.5 mph - N/A   Mostly Cloudy
5:56 AM 79.0 °F - 71.1 °F 77% 29.98 in 10.0 mi West 4.6 mph - N/A   Mostly Cloudy
6:56 AM 78.1 °F - 73.0 °F 84% 29.98 in 10.0 mi WSW 4.6 mph - N/A   Partly Cloudy
7:56 AM 79.0 °F - 73.9 °F 84% 29.98 in 10.0 mi WSW 4.6 mph - N/A   Clear
8:56 AM 80.1 °F 84.5 °F 73.9 °F 81% 29.98 in 10.0 mi SW 3.5 mph - N/A   Clear
9:56 AM 84.0 °F 91.9 °F 75.0 °F 74% 29.98 in 8.0 mi Variable 5.8 mph 41.4 mph N/A   Clear
10:56 AM 88.0 °F 97.5 °F 75.0 °F 65% 29.96 in 9.0 mi WSW 3.5 mph - N/A   Clear
11:56 AM 91.9 °F 103.9 °F 75.9 °F 59% 29.95 in 10.0 mi WSW 5.8 mph - N/A   Clear
12:56 PM 91.0 °F 102.9 °F 75.9 °F 61% 29.93 in 10.0 mi West 6.9 mph - N/A   Scattered Clouds
1:56 PM 91.9 °F 103.9 °F 75.9 °F 59% 29.91 in 9.0 mi SSW 6.9 mph - N/A   Partly Cloudy
2:56 PM 93.0 °F 104.6 °F 75.0 °F 56% 29.89 in 10.0 mi SW 9.2 mph 38.0 mph 0.01 in   Clear
3:56 PM 91.9 °F 101.3 °F 73.9 °F 55% 29.87 in 10.0 mi SW 10.4 mph - N/A   Scattered Clouds
4:56 PM 91.9 °F 101.3 °F 73.9 °F 55% 29.85 in 10.0 mi WSW 12.7 mph 52.9 mph N/A   Partly Cloudy
5:56 PM 91.9 °F 100.7 °F 73.0 °F 54% 29.84 in 10.0 mi West 5.8 mph - N/A   Clear
6:56 PM 90.0 °F 97.9 °F 73.0 °F 57% 29.83 in 10.0 mi Variable 5.8 mph - N/A   Mostly Cloudy
7:56 PM 89.1 °F 97.0 °F 73.0 °F 59% 29.84 in 9.0 mi West 5.8 mph - 0.00 in Rain , Thunderstorm Light Thunderstorms and Rain
8:45 PM 77.0 °F - 73.4 °F 89% 29.91 in 10.0 mi NE 11.5 mph 16.1 mph 0.07 in Rain , Thunderstorm Light Rain
8:56 PM 75.9 °F - 73.0 °F 91% 29.90 in 10.0 mi NE 13.8 mph 18.4 mph 0.07 in Rain Light Rain
9:02 PM 75.2 °F - 73.4 °F 94% 29.89 in 10.0 mi NNE 10.4 mph 18.4 mph 0.00 in Rain , Thunderstorm Light Rain
9:20 PM 75.2 °F - 73.4 °F 94% 29.90 in 9.0 mi NE 12.7 mph - 0.01 in Rain Light Rain
9:31 PM 75.2 °F - 73.4 °F 94% 29.91 in 10.0 mi East 6.9 mph 17.3 mph 0.02 in Rain , Thunderstorm Light Rain
9:49 PM 75.2 °F - 73.4 °F 94% 29.94 in 4.0 mi Variable 6.9 mph - 0.12 in Rain , Thunderstorm Thunderstorms and Rain
9:54 PM 75.2 °F - 73.4 °F 94% 29.95 in 2.0 mi Variable 3.5 mph - 0.19 in Rain , Thunderstorm Thunderstorms and Rain
9:56 PM 75.0 °F - 73.0 °F 94% 29.96 in 2.0 mi Calm Calm - 0.20 in Rain , Thunderstorm Light Thunderstorms and Rain
10:06 PM 73.4 °F - 73.4 °F 100% 29.95 in 1.5 mi SE 3.5 mph - 0.18 in Rain , Thunderstorm Heavy Thunderstorms and Rain
10:08 PM 73.4 °F - 73.4 °F 100% 29.94 in 1.2 mi ENE 3.5 mph - 0.21 in Rain Heavy Rain
10:10 PM 73.4 °F - 73.4 °F 100% 29.95 in 1.2 mi Variable 4.6 mph - 0.22 in Rain , Thunderstorm Heavy Thunderstorms and Rain
10:16 PM 73.4 °F - 73.4 °F 100% 29.95 in 2.0 mi ENE 4.6 mph - 0.25 in Rain , Thunderstorm Light Rain
10:25 PM 73.4 °F - 71.6 °F 94% 29.94 in 4.0 mi NNE 6.9 mph - 0.27 in Rain , Thunderstorm Light Rain
10:34 PM 73.4 °F - 73.4 °F 100% 29.93 in 5.0 mi NNE 6.9 mph - 0.30 in Rain Light Rain
10:45 PM 73.4 °F - 73.4 °F 100% 29.92 in 7.0 mi NNE 6.9 mph - 0.32 in Rain Light Rain
10:52 PM 75.2 °F - 73.4 °F 94% 29.92 in 6.0 mi NE 3.5 mph - 0.33 in Rain Light Rain
10:56 PM 75.0 °F - 73.0 °F 94% 29.92 in 6.0 mi SE 3.5 mph - 0.34 in Rain Light Rain
11:15 PM 73.4 °F - 73.4 °F 100% 29.93 in 6.0 mi SSW 5.8 mph - 0.03 in Rain Light Rain
11:56 PM 73.9 °F - 73.0 °F 97% 29.90 in 10.0 mi Calm Calm - 0.06 in Rain Light Rain